EW6113 Weather Reports


Display with metric or nautical units.
time (UTC)temp
F
wind
direction
speed
MPH
gust
MPH
rain 1hr
in
rain 24hr
in
rain mn
in
humidity
%
barometer
mb
20200331104543 61 248 1.0 3.0 0.00 0.00 0.00 90 1021.8
20200331103119 62 252 1.0 3.0 0.00 0.00 0.00 90 1021.9
20200331101542 62 254 0.0 4.0 0.00 0.00 0.00 90 1022.2
20200331100100 62 262 1.0 3.0 0.00 0.00 0.00 90 1022.3
20200331094541 62 246 4.0 8.0 0.00 0.00 0.00 91 1022.5
20200331093059 61 281 2.0 4.0 0.00 0.00 0.00 90 1022.5
20200331091544 61 248 1.0 6.0 0.00 0.00 0.00 90 1022.8
20200331090025 61 239 2.0 5.0 0.00 0.00 0.00 91 1022.8
20200331084534 61 254 3.0 7.0 0.00 0.00 0.00 91 1022.9
20200331083037 60 38 1.0 3.0 0.00 0.00 0.00 90 1023.2
20200331081544 59 267 2.0 4.0 0.00 0.00 0.00 90 1023.3
20200331080016 58 234 0.0 3.0 0.00 0.00 0.00 90 1023.4
20200331074530 59 234 0.0 1.0 0.00 0.00 0.00 89 1023.5
20200331073040 59 234 0.0 1.0 0.00 0.00 0.00 89 1023.4
20200331071513 60 234 0.0 1.0 0.00 0.00 0.00 89 1023.5
20200331070021 60 248 2.0 3.0 0.00 0.00 0.00 89 1023.6
20200331064517 61 279 0.0 2.0 0.00 0.00 0.00 88 1023.7
20200331063005 62 278 0.0 1.0 0.00 0.00 0.00 88 1023.8
20200331061502 62 278 0.0 2.0 0.00 0.00 0.00 88 1023.7
20200331060005 63 278 0.0 1.0 0.00 0.00 0.00 88 1023.6
20200331054628 64 278 1.0 2.0 0.00 0.00 0.00 88 1023.8
20200331053330 64 231 2.0 5.0 0.00 0.00 0.00 88 1023.8
20200331051628 64 234 2.0 6.0 0.00 0.00 0.00 88 1023.7
20200331050206 64 229 3.0 7.0 0.00 0.00 0.00 87 1023.7
20200331044838 64 259 4.0 6.0 0.00 0.00 0.00 87 1023.6
20200331043304 65 250 3.0 8.0 0.00 0.00 0.00 87 1023.7
20200331041647 65 247 4.0 9.0 0.00 0.00 0.00 87 1023.6
20200331040332 65 254 5.0 10.0 0.00 0.00 0.00 87 1023.4
20200331034718 65 232 5.0 10.0 0.00 0.00 0.00 86 1023.3
20200331033153 65 250 6.0 11.0 0.00 0.00 0.00 86 1023.3
20200331031800 65 257 5.0 12.0 0.00 0.00 0.00 85 1023.2
20200331030137 65 236 5.0 11.0 0.00 0.00 0.00 84 1022.9
20200331024635 65 263 4.0 11.0 0.00 0.00 0.00 84 1022.8
20200331023140 66 234 5.0 10.0 0.00 0.00 0.00 83 1022.7
20200331021714 66 290 7.0 12.0 0.00 0.00 0.00 82 1022.7
20200331020122 66 255 7.0 11.0 0.00 0.00 0.00 81 1023.0
20200331014608 67 270 6.0 14.0 0.00 0.00 0.00 80 1022.9
20200331013132 67 233 8.0 14.0 0.00 0.00 0.00 78 1022.9
20200331011620 68 247 10.0 17.0 0.00 0.00 0.00 77 1022.7
20200331010349 68 262 9.0 17.0 0.00 0.00 0.00 76 1022.7
20200331004653 69 277 7.0 15.0 0.00 0.00 0.00 75 1022.8
20200331003250 69 291 8.0 17.0 0.00 0.00 0.00 75 1022.8
20200331001545 70 297 7.0 14.0 0.00 0.00 0.00 75 1023.0
20200331000118 69 298 8.0 17.0 0.00 0.00 0.00 76 1023.1
20200330234625 69 285 11.0 18.0 0.00 0.00 0.00 76 1023.4
20200330233116 69 275 10.0 19.0 0.00 0.00 0.00 77 1023.6
20200330231615 70 286 9.0 19.0 0.00 0.00 0.00 76 1023.8
20200330230237 69 306 12.0 22.0 0.00 0.00 0.00 76 1023.9
20200330224606 69 322 12.0 19.0 0.00 0.00 0.00 76 1023.9
20200330223110 70 273 13.0 20.0 0.00 0.00 0.00 76 1024.1
20200330221559 70 271 10.0 20.0 0.00 0.00 0.00 77 1024.0
20200330220038 70 322 9.0 22.0 0.00 0.00 0.00 77 1024.1
20200330214702 70 281 10.0 18.0 0.00 0.00 0.00 76 1024.1
20200330213110 70 277 13.0 20.0 0.00 0.00 0.00 75 1024.1
20200330211632 70 311 12.0 19.0 0.00 0.00 0.00 75 1024.1
20200330210138 71 286 11.0 17.0 0.00 0.00 0.00 75 1024.3
20200330204622 70 295 8.0 17.0 0.00 0.00 0.00 77 1024.5
20200330203050 70 333 11.0 20.0 0.00 0.00 0.00 75 1024.6
20200330201600 70 308 10.0 15.0 0.00 0.00 0.00 74 1024.7
20200330200053 70 295 9.0 16.0 0.00 0.00 0.00 73 1025.0
20200330194626 70 304 6.0 15.0 0.00 0.00 0.00 74 1025.1
20200330193132 70 267 9.0 15.0 0.00 0.00 0.00 73 1025.4
20200330191531 70 247 6.0 15.0 0.00 0.00 0.00 74 1025.6
20200330190056 70 258 9.0 16.0 0.00 0.00 0.00 72 1025.6
20200330184529 73 315 8.0 15.0 0.00 0.00 0.00 67 1025.5
20200330183036 73 267 8.0 11.0 0.00 0.00 0.00 65 1025.4
20200330181609 73 292 6.0 13.0 0.00 0.00 0.00 67 1025.3
20200330180114 71 271 5.0 9.0 0.00 0.00 0.00 69 1025.3
20200330174523 70 244 6.0 9.0 0.00 0.00 0.00 70 1025.3
20200330173027 69 269 4.0 8.0 0.00 0.00 0.00 72 1025.2
20200330171534 69 306 2.0 7.0 0.00 0.00 0.00 74 1025.0
20200330170012 68 281 2.0 7.0 0.00 0.00 0.00 75 1025.0
20200330164523 67 245 3.0 5.0 0.00 0.00 0.00 78 1025.0
20200330163016 66 284 1.0 4.0 0.00 0.00 0.00 82 1025.0
20200330161723 64 295 2.0 5.0 0.00 0.00 0.00 85 1025.0
20200330160221 63 288 2.0 4.0 0.00 0.00 0.00 89 1025.0
20200330154614 61 302 1.0 2.0 0.00 0.00 0.00 91 1024.8
20200330153129 60 319 0.0 3.0 0.00 0.00 0.00 91 1024.7
20200330151624 58 318 1.0 3.0 0.00 0.00 0.00 91 1024.6
20200330150108 56 91 0.0 1.0 0.00 0.00 0.00 92 1024.6
20200330144602 54 92 0.0 2.0 0.00 0.00 0.00 92 1024.4
20200330143038 52 105 0.0 2.0 0.00 0.00 0.00 92 1024.2
20200330141619 51 87 0.0 1.0 0.00 0.00 0.00 91 1023.8
20200330140048 51 87 0.0 1.0 0.00 0.00 0.00 91 1023.7
20200330134545 52 87 0.0 2.0 0.00 0.00 0.00 91 1023.5
20200330133134 52 87 0.0 2.0 0.00 0.00 0.00 91 1023.3
20200330131537 52 189 0.0 2.0 0.00 0.00 0.00 91 1023.2
20200330130119 52 153 0.0 2.0 0.00 0.00 0.00 91 1023.2
20200330124556 52 101 0.0 2.0 0.00 0.00 0.00 91 1023.3
20200330123056 53 101 0.0 2.0 0.00 0.00 0.00 91 1023.3
20200330121604 53 101 0.0 2.0 0.00 0.00 0.00 91 1023.3
20200330120035 53 100 0.0 1.0 0.00 0.00 0.00 91 1023.3
20200330114526 54 100 1.0 2.0 0.00 0.00 0.00 91 1023.4
20200330113036 54 108 1.0 2.0 0.00 0.00 0.00 91 1023.4
20200330111525 53 108 0.0 0.0 0.00 0.00 0.00 91 1023.6
20200330110029 53 104 0.0 1.0 0.00 0.00 0.00 91 1023.8